Regional Weather Roundup
Issued by NWS Lake Charles, LA

Home | Current Version | Previous Version | Text Only | Print | Product List | Glossary On
Versions: 1 2 3 4 5 6 7 8 9 10 11 12 13 14 15 16 17 18 19 20 21 22 23 24 25 26 27 28 29 30 31 32 33 34 35 36 37 38 39 40 41 42 43 44 45 46 47 48 49 50
000
ASUS44 KLCH 020710
RWRLCH
RWRLCH
REGIONAL WEATHER ROUNDUP
NATIONAL WEATHER SERVICE LAKE CHARLES LA
200 AM CDT TUE JUN 02 2015

Note: "fair" indicates few or no clouds below 12,000 feet with no
significant weather and/or obstructions to visibility.


ACROSS SOUTHEAST TEXAS

CITY           SKY/WX    TMP DP  RH WIND       PRES   REMARKS
BEAUMONT       CLEAR     69  66  90 N3        30.00F
BEAUMONT CITY    N/A     67  66  97 CALM      30.02S
ORANGE         SUNNY     66  66  97 CALM      30.02S
JASPER         CLEAR     66  65  96 CALM      30.04S FOG
$$

ACROSS CENTRAL LOUISIANA

CITY           SKY/WX    TMP DP  RH WIND       PRES   REMARKS
LEESVILLE      CLEAR     68  65  89 NE3       30.01S
FULLERTON        N/A     68  63  84 CALM      30.00S
ALEXANDRIA INT CLEAR     70  67  90 NE5       30.00F
ESLER FIELD    CLEAR     65  64  97 CALM      30.02F FOG
DERIDDER         N/A     65  64  96 CALM      30.04S
OAKDALE        SUNNY     64  63  95 CALM      30.01S
OPELOUSAS      PTSUNNY  N/A N/A N/A CALM      30.01S
$$

ACROSS SOUTHWEST AND SOUTH CENTRAL LOUISIANA

CITY           SKY/WX    TMP DP  RH WIND       PRES   REMARKS
SULPHUR        SUNNY     69  67  92 CALM      30.01S
LAKE CHARLES   CLEAR     68  65  90 CALM      30.00F
CHENNAULT INT  CLEAR     69  65  85 CALM      30.01S
CAMERON PHI    SUNNY     73  66  78 NE3       30.03S HAZE
DEQUINCY         N/A     65  65 100 CALM      30.01F
JENNINGS         N/A     71  67  89 CALM      30.00F
LAFAYETTE      CLEAR     72  66  81 CALM      30.00S
NEW IBERIA     CLEAR     71  70  96 CALM      30.00F
ABBEVILLE      FOG       69  68  99 CALM      30.00S VSB 1/4
PATTERSON      CLEAR     72  68  88 CALM      30.01S
SALT POINT       N/A     75  71  87 CALM      29.98F
$$

SELECTED SITES ACROSS THE REGION

CITY           SKY/WX    TMP DP  RH WIND       PRES   REMARKS
HOUSTON BUSH   PTCLDY    70  67  90 CALM      30.01F
HOUSTON HOBBY  PTCLDY    74  68  81 CALM      30.01S
GALVESTON      PTCLDY    77  71  82 W6        30.02S
COLLEGE STAT   CLEAR     73  65  75 CALM      30.02F
CONROE         CLEAR     65  63  93 CALM      30.03S
HUNTSVILLE     CLEAR     67  63  87 CALM      30.03S
LUFKIN         CLEAR     69  64  84 CALM      30.02F
SHREVEPORT     CLEAR     68  65  90 CALM      30.03F
MONROE         CLEAR     67  65  93 CALM      30.05F
NATCHEZ MS     CLEAR     66  63  88 NE5       30.03S
BATON ROUGE    MOCLDY    70  67  90 NE5       30.00F
N.O. INTL ARPT MOCLDY    75  69  81 CALM      29.99F
SLIDELL        LGT RAIN  73  72  96 NE6       29.98F
$$

MARINE REPORTS

STATION/POSITION TIME  TEMP    WIND        PRES    VSBY  WAVE
                       AIR SEA DIR/SP/G                  HT/PER
                 (UTC) (F)     (DEG/KT/KT) (MB)    (MI)  (FT/S)
BUOY 30 S HIGH I 0650   81 82  230/  6/  6 1015.5F         1
SEA RIM ST PARK  0700   74     360/  3/  3 1016.3F
PORT ARTHUR      0600      78                N/A
SABINE PASS N    0600   77 79                N/A
TEXAS POINT      NOT AVBL
CALCASIEU PASS   0600   78 84                N/A
LK CHARLES BEACH 0600   75 81                N/A
MARSH ISLAND     0600   82     330/  6/  8   N/A           0
FRESH WATER LOCK 0600   76 85                N/A
AMERADA PASS     0600   77 77                N/A
$$



USA.gov is the U.S. government's official web portal to all federal, state and local government web resources and services.